THORAD AGENA D DEB, 6157

Orbit data source: Space-Track

THORAD AGENA D DEB, 6157 is space debris in SSO originally from a launch on Wed, 08 Apr 1970 UTC launched from the Air Force Western Test Range (AFWTR). Debris objects in space refer to the collection of defunct objects orbiting the Earth. Examples of debris include non-operational satellites, rocket bodies, and fragments generated from explosions, collisions, or faulty payload assembly.

Loading next visibility...
Identifier
6157, 1970-025MX
Orbit
SSO
Country
Flag of USUS
Related business
Manufacturer
Unknown
Mission
Spacecraft
Bus & Motor
Unknown
Mass
Unknown
Launch date (UTC)
1970-04-08 (56 years ago)
Launch vehicle
Unknown
Launch site
Air Force Western Test Range (AFWTR)
Object type
Payload
Rocket body
Debris
Shape & HBR
Unknown shape, 0.1 m
Radar Cross Section
Small (<0.1 m²)

Expand to show TLE details & history
Last TLE update: 2 days ago

TLE from 2 days ago
0 THORAD AGENA D DEB
1 06157U 70025MX  25354.14753757  .00003060  00000-0  14483-2 0  9992
2 06157  99.8817 152.7931 0014145 165.3026 194.8561 14.20498666820492
Epoch: 2025-12-20T03:32Z
TLE epoch observation values (Epoch: 2025-12-20T03:32:27.246Z)
Latitude
0.00003°
Longitude
10.70106°
Altitude
836.391 km
Speed
7.43 km/s
True Right ascension
10h 11m 10s
True Declination
0° 00' 00"
Sunlit
Object was in daylight at epoch
Visualization orbit readout
Latitude
Unknown
Longitude
Unknown
Altitude
Unknown
Speed
Unknown
Apparent Right ascension
Unknown
Apparent Declination
Unknown
Sunlit
N/A
Visualization observer readout
Local Sidereal Time
21:37:47
Azimuth
Unknown
Elevation
Unknown
Doppler factor
Unknown
Orbital elements
Apogee altitude
831.068 km
Perigee altitude
810.702 km
Semi-major axis
7,199.022 km
Eccentricity
0.00141
Inclination
99.8817°
RAAN
152.7931°
Arg. of periapsis
165.3026°
True anomaly
194.81461°
Mean anomaly
194.8561°
Eccentric anomaly
194.83535°
Mean motion
3.55331 °/min
Orbital period
101.31 mins
BSTAR
0.0014483
Loading maneuver chart data...
Computing Atmospheric mass density...
Loading historical data...
Loading historical data...
Loading historical data...
Loading historical data...
Loading historical data...
Loading historical data...
Loading historical data...

Documentation

Showing up to 5 results
|